[[{"header":{"parameterUnit":"m.s-1","parameterCategory":1,"la1":30.2991,"la2":30.254,"lo1":-89.0895,"lo2":-89.0444,"dy":0.0017,"dx":0.0017,"nx":28,"ny":28,"refTime":"2025-01-25T03:00:00:Z","depth":0,"parameterNumber":2,"parameterNumberName":"U-component_of_WINDS"},"data":[0,0,0,0,0,0,0,0,0,0,0,0,0,0,0,0,0,0,0,0,0,0,0,0,0,0,0,0,0,0,0,0,0,0,0,0,0,0,0,0,0,0,0,0,0,0,0,0,0,0,0,0,0,0,0,0,0,0,-3.8031,-3.8031,0,-3.8054,-3.8054,-3.8055,-3.7936,-3.7933,-3.7929,-3.7926,-3.7955,-3.7958,-3.7962,0,0,0,0,0,0,0,0,0,0,0,0,0,-3.7889,-3.7892,-3.8031,-3.8031,-3.8031,-3.8054,-3.8054,-3.8055,-3.7937,-3.7933,-3.7929,-3.7925,-3.7953,-3.7958,-3.7963,0,0,0,0,0,0,0,0,0,0,0,0,0,-3.7935,-3.7893,-3.8031,-3.7975,-3.797,-3.8054,-3.8055,-3.8055,-3.7938,-3.7933,-3.7927,-3.7923,-3.7952,-3.7958,-3.7963,-3.8103,0,0,-3.7982,-3.7984,0,0,0,0,0,0,0,0,-3.7933,-3.7941,-3.7983,-3.7979,-3.7974,-3.7987,-3.8015,-3.8071,-3.7939,-3.795,-3.7926,-3.792,-3.797,-3.7974,-3.799,-3.8104,-3.8106,-3.7982,-3.7986,-3.7988,-3.799,0,0,0,0,0,0,0,-3.793,-3.7939,-3.804,-3.7984,-3.7978,-3.7951,-3.7952,-3.8025,-3.7989,-3.7949,-3.794,-3.7945,-3.7966,-3.7984,-3.799,-3.8106,-3.7982,-3.7987,-3.7991,-3.7993,-3.834,-3.8345,0,0,0,0,0,0,-3.7933,-3.7937,-3.8039,-3.8041,-3.794,-3.7957,-3.7958,-3.7988,-3.7988,-3.7982,-3.7949,-3.7939,-3.7977,-3.7983,-3.799,-3.8155,-3.7988,-3.7994,-3.7997,-3.8334,-3.8341,-3.8347,0,0,0,0,0,0,-3.7931,-3.7944,-3.8038,-3.7987,-3.7997,-3.7965,-3.8,-3.7991,-3.8009,-3.7987,-3.7981,-3.7974,-3.7973,-3.7982,-3.8076,-3.8155,-3.7996,-3.8002,-3.8327,-3.8336,-3.8344,-3.8487,0,0,0,0,0,0,-3.7927,-3.7943,-3.7995,-3.7989,-3.8,-3.8123,-3.8004,-3.7995,-3.8019,-3.8006,-3.8009,-3.8005,-3.797,-3.8068,-3.8082,-3.816,-3.8006,-3.832,-3.8331,-3.8341,-3.8475,-3.8499,-3.852,0,0,0,0,0,-3.7923,-3.8034,-3.7998,-3.8011,-3.8063,-3.8127,-3.8134,-3.809,-3.8026,-3.8078,-3.8065,-3.8004,-3.8144,-3.8079,-3.8094,-3.8175,-3.8315,-3.8328,-3.834,-3.8465,-3.8494,-3.8519,0,0,0,0,0,0,-3.8051,-3.8032,-3.7992,-3.8104,-3.8118,-3.8107,-3.8172,-3.8122,-3.8156,-3.8143,-3.8088,-3.809,-3.8195,-3.8194,-3.8121,-3.8311,-3.8218,-3.8235,-3.8308,-3.8336,-3.8358,-3.8356,-3.8011,0,0,0,0,0,-3.8092,-3.8145,-3.8126,-3.8227,-3.8236,-3.8204,-3.823,-3.8195,-3.8208,-3.8213,-3.8207,-3.8223,-3.827,-3.8303,-3.8345,-3.8474,-3.8474,-3.8537,-3.856,-3.8578,-3.8593,-3.8664,-3.8693,-3.8389,-3.8388,-3.8388,0,0,-3.8178,-3.8175,-3.8211,-3.8253,-3.826,-3.8317,-3.8209,-3.8274,-3.8316,-3.8223,-3.8312,-3.8309,-3.8323,-3.8436,-3.8486,-3.8439,-3.8677,-3.8594,-3.8609,-3.8614,-3.868,-3.8709,-3.8735,-3.8397,-3.8396,-3.8394,0,0,-3.8365,-3.8366,-3.8452,-3.8461,-3.8472,-3.845,-3.8471,-3.8468,-3.8462,-3.855,-3.8482,-3.8533,-3.8615,-3.8629,-3.8647,-3.8842,-3.8789,-3.8857,-3.8975,-3.9045,-3.9069,-3.909,-3.9161,-3.9187,-3.8872,-3.8873,-3.8873,0,-3.8471,-3.8553,-3.8503,-3.8573,-3.8594,-3.8512,-3.86,-3.8612,-3.8637,-3.8655,-3.8602,-3.8705,-3.8709,-3.8825,-3.8873,-3.889,-3.8914,-3.8857,-3.9069,-3.9089,-3.9108,-3.9176,-3.9203,-3.8881,-3.888,-3.8879,-3.8878,0,-3.8684,-3.8742,-3.881,-3.8836,-3.8866,-3.8944,-3.8908,-3.8944,-3.8908,-3.8892,-3.8985,-3.8987,-3.9029,-3.9054,-3.9019,-3.9167,-3.9137,-3.9078,-3.8984,-3.9147,-3.921,-3.9235,-3.8893,-3.889,-3.8888,-3.8885,0,0,-3.8951,-3.8949,-3.8975,-3.8987,-3.8995,-3.904,-3.9117,-3.9157,-3.919,-3.9211,-3.9276,-3.9348,-3.9293,-3.9314,-3.928,-3.9341,-3.9499,-3.9274,-3.9273,-3.9317,-3.9665,-3.9711,-3.9741,-3.9463,-3.9468,-3.9471,-3.9664,0,-3.9135,-3.9263,-3.9222,-3.9353,-3.9408,-3.9332,-3.9398,-3.9412,-3.94,-3.9446,-3.9433,-3.9486,-3.9409,-3.9421,-3.9478,-3.9467,-3.9568,-3.9453,-3.9525,-3.9528,-3.9525,-3.9774,-3.9822,-4.0004,-3.9688,-3.9692,-3.9695,0,-3.9366,-3.9396,-3.9533,-3.9533,-3.9555,-3.9616,-3.9651,-3.9695,-3.971,-3.9697,-3.9722,-3.9676,-3.9753,-3.9658,-3.9766,-3.9688,-3.9716,-3.9715,-3.9721,-3.9727,-3.9622,-3.9789,-4.006,-4.0089,-3.9733,-3.973,-3.9727,0,-3.955,-3.9625,-3.9716,-3.9729,-3.9731,-3.9776,-3.978,-3.9789,-3.9817,-3.9849,-3.9867,-3.9908,-3.993,-3.9964,-3.9932,-3.9865,-4.0045,-3.9947,-4.0039,-4.004,-4.0081,-4.0079,-4.0363,-4.0096,-4.0096,-4.0095,-4.0095,0,-3.9761,-3.9848,-3.9799,-3.9856,-3.9953,-3.9905,-4.0002,-3.9997,-4.0007,-4.0063,-4.0,-4.0055,-4.0007,-4.0059,-4.0034,-4.0128,-4.0138,-4.0132,-4.0125,-4.0139,-4.014,-4.0157,-4.0144,-4.0102,-4.0101,-4.0099,-4.0098,0,-3.9982,-3.9953,-4.0049,-4.0043,-4.0044,-4.0116,-4.0112,-4.0166,-4.015,-4.0222,-4.0237,-4.0212,-4.0269,-4.024,-4.0299,-4.0283,-4.0405,-4.038,-4.04,-4.0394,-4.0488,-4.0481,-4.0794,-4.0834,-4.054,-4.0543,-4.0546,0,-4.0119,-4.0184,-4.0187,-4.0219,-4.0227,-4.028,-4.0309,-4.0265,-4.0298,-4.0321,-4.0373,-4.0424,-4.0463,-4.0559,-4.0547,-4.0593,-4.057,-4.0677,-4.0577,-4.0589,-4.0574,-4.0571,-4.0579,-4.0697,-4.0701,-4.0704,-4.0706,0,-4.0366,-4.0349,-4.0391,-4.043,-4.0466,-4.0495,-4.0518,-4.0549,-4.0506,-4.0547,-4.0604,-4.0634,-4.0695,-4.0749,-4.0789,-4.0794,-4.0745,-4.0737,-4.0761,-4.0777,-4.0787,-4.0785,-4.0457,-4.0731,-4.0728,-4.0726,-4.0725,-4.0724,-4.055,-4.0606,-4.0617,-4.0667,-4.068,-4.0705,-4.0755,-4.0746,-4.0792,-4.0838,-4.081,-4.0878,-4.0894,-4.0943,-4.0956,-4.101,-4.0968,-4.1002,-4.1011,-4.1021,-4.1034,-4.0777,-4.1017,-4.1016,-4.1015,-4.1015,-4.1014,0,-4.0796,-4.0799,-4.0846,-4.0881,-4.0922,-4.087,-4.0894,-4.0932,-4.0993,-4.1011,-4.1051,-4.1118,-4.117,-4.1164,-4.1212,-4.1257,-4.1236,-4.1271,-4.1268,-4.1271,-4.1068,-4.1043,-4.1288,-4.1288,-4.1288,-4.1288,-4.1288,-4.1287,-4.0928,-4.102,-4.1005,-4.1104,-4.1107,-4.1173,-4.1191,-4.1214,-4.1229,-4.1307,-4.1349,-4.1344,-4.1354,-4.1402,-4.1448,-4.1445,-4.1467,-4.1512,-4.1501,-4.1312,-4.1285,-4.1259,-4.1236,-4.1516,-4.1517,-4.1699,-4.1701,-4.1702]},{"header":{"parameterUnit":"m.s-1","parameterCategory":1,"la1":30.2991,"la2":30.254,"lo1":-89.0895,"lo2":-89.0444,"dy":0.0017,"dx":0.0017,"nx":28,"ny":28,"refTime":"2025-01-25T03:00:00:Z","depth":0,"parameterNumber":3,"parameterNumberName":"V-component_of_WINDS"},"data":[0,0,0,0,0,0,0,0,0,0,0,0,0,0,0,0,0,0,0,0,0,0,0,0,0,0,0,0,0,0,0,0,0,0,0,0,0,0,0,0,0,0,0,0,0,0,0,0,0,0,0,0,0,0,0,0,0,0,-0.2944,-0.2944,0,-0.3025,-0.3026,-0.3027,-0.2995,-0.2994,-0.2992,-0.299,-0.3082,-0.3086,-0.309,0,0,0,0,0,0,0,0,0,0,0,0,0,-0.2767,-0.277,-0.2943,-0.2944,-0.2945,-0.3025,-0.3026,-0.3027,-0.2996,-0.2993,-0.2991,-0.2989,-0.3081,-0.3086,-0.3091,0,0,0,0,0,0,0,0,0,0,0,0,0,-0.2846,-0.2771,-0.2943,-0.2939,-0.294,-0.3025,-0.3026,-0.3028,-0.2996,-0.2993,-0.2991,-0.2988,-0.3079,-0.3085,-0.3092,-0.3188,0,0,-0.3111,-0.3114,0,0,0,0,0,0,0,0,-0.2841,-0.2852,-0.2939,-0.294,-0.294,-0.2997,-0.2998,-0.3082,-0.2997,-0.2975,-0.299,-0.2986,-0.3057,-0.3065,-0.3087,-0.3193,-0.3197,-0.3112,-0.3115,-0.3118,-0.312,0,0,0,0,0,0,0,-0.2836,-0.2849,-0.2976,-0.294,-0.2941,-0.2935,-0.2943,-0.3013,-0.3031,-0.2977,-0.2975,-0.2984,-0.3057,-0.3081,-0.3089,-0.3198,-0.3111,-0.3117,-0.3121,-0.3123,-0.3387,-0.339,0,0,0,0,0,0,-0.2829,-0.2844,-0.2973,-0.2978,-0.2882,-0.2941,-0.295,-0.2982,-0.303,-0.3035,-0.2987,-0.2982,-0.3071,-0.3081,-0.3092,-0.3207,-0.3118,-0.3124,-0.3128,-0.3383,-0.3387,-0.3391,0,0,0,0,0,0,-0.2825,-0.2841,-0.297,-0.2911,-0.2927,-0.2947,-0.2983,-0.2985,-0.3009,-0.3038,-0.3041,-0.3007,-0.3069,-0.3083,-0.3164,-0.321,-0.3127,-0.3133,-0.338,-0.3385,-0.3389,-0.344,0,0,0,0,0,0,-0.282,-0.284,-0.2875,-0.2912,-0.293,-0.3039,-0.2986,-0.2989,-0.3019,-0.3014,-0.3058,-0.3063,-0.3068,-0.3154,-0.317,-0.3217,-0.3138,-0.3376,-0.3382,-0.3387,-0.3434,-0.3446,-0.3456,0,0,0,0,0,-0.2814,-0.2889,-0.2877,-0.2893,-0.2974,-0.3042,-0.3052,-0.3054,-0.3023,-0.3059,-0.3078,-0.3061,-0.3202,-0.3163,-0.318,-0.323,-0.3373,-0.338,-0.3387,-0.343,-0.3444,-0.3456,0,0,0,0,0,0,-0.2861,-0.2893,-0.2881,-0.2969,-0.3002,-0.3036,-0.3083,-0.307,-0.3115,-0.3109,-0.3112,-0.3122,-0.3205,-0.3226,-0.3182,-0.3326,-0.3283,-0.3294,-0.331,-0.3323,-0.3334,-0.3328,-0.3143,0,0,0,0,0,-0.2881,-0.293,-0.2957,-0.3032,-0.3049,-0.3063,-0.3092,-0.309,-0.3126,-0.3141,-0.3165,-0.3203,-0.3256,-0.3291,-0.3341,-0.3437,-0.3446,-0.348,-0.3491,-0.3499,-0.3509,-0.3561,-0.3576,-0.3414,-0.3414,-0.3414,0,0,-0.2924,-0.2947,-0.2979,-0.3042,-0.3067,-0.312,-0.3075,-0.3134,-0.3173,-0.3151,-0.3228,-0.3247,-0.3289,-0.3378,-0.3418,-0.3398,-0.3556,-0.3508,-0.3515,-0.352,-0.357,-0.3585,-0.3599,-0.3419,-0.3418,-0.3417,0,0,-0.3028,-0.3051,-0.3115,-0.3141,-0.3179,-0.3187,-0.3203,-0.3238,-0.3249,-0.3325,-0.3309,-0.3358,-0.3448,-0.3478,-0.3506,-0.3619,-0.3606,-0.3636,-0.3693,-0.3743,-0.3756,-0.3768,-0.3808,-0.3823,-0.3645,-0.3646,-0.3646,0,-0.3078,-0.3154,-0.3151,-0.321,-0.3238,-0.3216,-0.3282,-0.3308,-0.3362,-0.3383,-0.3358,-0.347,-0.3497,-0.3592,-0.3619,-0.3642,-0.3661,-0.3632,-0.3754,-0.3765,-0.3776,-0.3815,-0.383,-0.3649,-0.3649,-0.3648,-0.3648,0,-0.3213,-0.3266,-0.3314,-0.3362,-0.3396,-0.3459,-0.3466,-0.3501,-0.3496,-0.3507,-0.3586,-0.3617,-0.3672,-0.3694,-0.3692,-0.3789,-0.3775,-0.3752,-0.3709,-0.3795,-0.3832,-0.3846,-0.3654,-0.3653,-0.3652,-0.3651,0,0,-0.3351,-0.3395,-0.3412,-0.3433,-0.3473,-0.3515,-0.3577,-0.3627,-0.3657,-0.3695,-0.3747,-0.3823,-0.3801,-0.3832,-0.3833,-0.3877,-0.3965,-0.3849,-0.385,-0.3869,-0.4074,-0.4091,-0.4108,-0.3955,-0.3958,-0.3961,-0.407,0,-0.3459,-0.3563,-0.3561,-0.366,-0.3709,-0.3688,-0.3742,-0.3773,-0.3785,-0.383,-0.3845,-0.3898,-0.3866,-0.3884,-0.3927,-0.3945,-0.4006,-0.3937,-0.4006,-0.4009,-0.3997,-0.4127,-0.4146,-0.4248,-0.4085,-0.4087,-0.4089,0,-0.3599,-0.3637,-0.3739,-0.3769,-0.379,-0.3838,-0.3884,-0.3927,-0.3962,-0.3967,-0.4,-0.3993,-0.4057,-0.4011,-0.41,-0.4053,-0.4082,-0.4095,-0.4099,-0.4106,-0.4055,-0.4139,-0.4281,-0.4297,-0.4112,-0.411,-0.4108,0,-0.3689,-0.3767,-0.3837,-0.3856,-0.3893,-0.3927,-0.3945,-0.3976,-0.4007,-0.4048,-0.4067,-0.4116,-0.4144,-0.4183,-0.419,-0.4155,-0.4279,-0.4234,-0.4287,-0.4287,-0.4316,-0.4314,-0.4465,-0.4333,-0.4332,-0.4332,-0.4332,0,-0.381,-0.3874,-0.3878,-0.3921,-0.3992,-0.3989,-0.406,-0.4075,-0.4103,-0.4151,-0.4137,-0.4182,-0.4188,-0.4235,-0.4241,-0.4314,-0.4327,-0.4335,-0.4336,-0.4336,-0.4336,-0.4356,-0.4349,-0.4336,-0.4335,-0.4334,-0.4334,0,-0.3924,-0.3929,-0.4004,-0.4032,-0.404,-0.4091,-0.4116,-0.4159,-0.4168,-0.4228,-0.4242,-0.4259,-0.4314,-0.4323,-0.439,-0.4394,-0.4481,-0.4475,-0.4468,-0.4468,-0.4521,-0.4516,-0.4691,-0.4714,-0.4566,-0.4567,-0.4568,0,-0.4001,-0.4048,-0.408,-0.4109,-0.4127,-0.4175,-0.4204,-0.4204,-0.4236,-0.4278,-0.4316,-0.4368,-0.4411,-0.45,-0.4519,-0.457,-0.4565,-0.4623,-0.4573,-0.4571,-0.4566,-0.4564,-0.4569,-0.4633,-0.4634,-0.4636,-0.4637,0,-0.4137,-0.4136,-0.4178,-0.422,-0.4255,-0.429,-0.4322,-0.4348,-0.4352,-0.4389,-0.4442,-0.4475,-0.454,-0.4593,-0.4643,-0.4664,-0.4652,-0.4652,-0.4667,-0.4669,-0.4663,-0.4667,-0.4495,-0.4648,-0.4647,-0.4646,-0.4646,-0.4645,-0.4234,-0.4275,-0.4303,-0.435,-0.4373,-0.4404,-0.4444,-0.4457,-0.4501,-0.4552,-0.455,-0.461,-0.4643,-0.4708,-0.4731,-0.478,-0.4762,-0.4784,-0.4789,-0.4795,-0.48,-0.4654,-0.4789,-0.4789,-0.4788,-0.4788,-0.4788,0,-0.437,-0.4386,-0.4429,-0.4473,-0.451,-0.4491,-0.4526,-0.4559,-0.461,-0.4641,-0.4682,-0.4744,-0.4795,-0.4817,-0.4867,-0.4902,-0.4898,-0.4915,-0.4913,-0.4918,-0.4813,-0.4795,-0.4918,-0.4918,-0.4918,-0.4918,-0.4918,-0.4918,-0.4444,-0.4512,-0.4515,-0.4594,-0.4611,-0.4667,-0.4688,-0.4716,-0.474,-0.4809,-0.485,-0.4863,-0.4891,-0.4943,-0.4989,-0.4994,-0.5014,-0.5035,-0.5038,-0.4939,-0.4926,-0.4913,-0.4896,-0.5039,-0.5039,-0.5139,-0.514,-0.5141]}]]